Starlink 32169

operational
NORAD ID: 60589 Int'l Des: 2024-150 Owner: SPXS Country: US Constellation: starlink
LEOCIRCULAR

Über Starlink 32169

Beschreibung wird geladen...

Live-Position

3D-Globus wird geladen...

Nächste Überflüge

Höhenverlauf

Altitude vs Time

uPlot chart will show altitude changes over time

Zweizeiliger Elementsatz

1 60589U 24150G 25306.37398951 .00001778 00000-0 72174-4 0 9999
2 60589 53.1586 178.7598 0001522 87.5386 272.5788 15.30192003 68546
Epoch: 2. Nov. 2025 • Age: 29 hours

Aktueller Status

Höhe 493.6 km
Geschwindigkeit 7.62 km/s
Subsatellitenpunkt -50.22°S, 150.14°W
Startdatum 20. Aug. 2024
Alter 1.2 years
Typ internet

Technische Details

Klassifizierung Payload
Masse 730.00 kg
Trockenmasse 700.00 kg
Gesamtmasse 730.00 kg
Länge 0.30 m
Durchmesser 4.10 m
Spannweite 29.00 m
Form Box + pan
Hersteller SPXS
Bus-Typ Starlink V2M
Phasenstatus In Orbit
Besitzer/Staat SPXS/US

Große Konstellationen

Loading constellations...